Wind_Speed
58 57 61 54 60 67 67 66 64 66 68 65 66 70 72 73 73 76 79 80 83 85 88 91 94 98 101
55 57 57 68 69 67 62 63 64 64 63 67 69 71 72 74 78 80 84 86 87 91 95 99 102 105 107
59 66 69 66 64 63 60 62 63 65 65 68 70 72 75 79 82 85 87 91 94 98 101 105 107 106 100
64 63 62 59 60 59 58 62 64 64 66 69 72 76 79 82 86 89 93 97 101 104 106 107 101 89 77
58 57 59 59 58 58 62 61 62 65 67 72 75 79 82 87 91 95 99 103 106 107 106 98 83 72 68
53 56 61 56 59 58 60 60 63 69 70 73 78 82 86 93 98 102 105 105 104 100 90 78 71 67 63
55 56 56 55 55 57 60 64 68 72 75 78 84 87 92 98 104 106 105 102 96 87 79 72 67 64 57
54 51 51 53 57 60 65 68 72 79 82 83 90 94 97 101 104 103 101 97 92 84 76 68 62 57 50
49 50 54 57 61 65 68 73 77 84 89 91 97 98 100 99 98 100 97 92 84 76 68 61 55 48 40
50 53 57 62 66 70 74 79 85 89 96 96 100 104 100 94 93 93 91 84 74 64 57 51 46 41 36
51 56 60 64 69 74 81 87 91 93 98 101 99 97 95 93 86 83 74 62 54 49 45 41 39 36 33
53 58 62 67 73 80 86 92 93 94 94 94 91 90 86 83 76 59 47 42 39 35 35 35 35 34 33
57 61 66 72 78 85 88 87 87 88 87 87 83 77 74 68 54 42 31 26 29 29 29 30 30 30 28
61 66 72 78 82 83 81 79 77 77 78 75 71 66 57 53 42 32 25 22 22 25 22 23 23 21 22
65 71 77 78 78 76 74 72 73 71 64 59 57 52 48 46 34 28 24 23 23 22 17 17 24 25 27
71 76 74 72 70 69 68 68 66 58 54 49 43 37 31 31 41 30 25 21 18 20 22 23 26 27 26
75 72 69 66 64 63 63 61 53 47 44 42 38 34 27 23 25 38 26 21 20 24 27 27 24 28 30
Wind_Direction
284 284 289 291 296 296 296 297 298 298 299 299 299 298 297 297 298 298 298 298 298 298 297 296 295 296 296
286 286 282 295 297 298 299 301 300 297 298 297 298 298 298 300 299 300 300 300 298 298 298 298 299 300 300
284 285 292 297 296 298 300 299 297 298 298 299 299 300 301 301 301 300 300 301 300 300 300 301 300 300 300
291 292 293 293 297 297 296 295 297 299 300 298 299 301 300 301 302 302 302 301 301 302 301 300 300 302 301
293 293 294 294 296 296 296 297 300 298 298 300 302 302 303 304 303 303 303 302 302 301 300 300 301 301 299
293 296 296 296 296 296 299 300 299 298 300 301 302 304 305 305 304 303 303 302 301 300 301 302 301 300 298
298 297 295 297 297 297 299 301 302 302 303 304 305 306 306 306 304 303 301 300 300 301 302 300 299 297 295
294 294 296 298 301 303 304 304 305 304 306 308 307 307 307 305 303 302 301 302 301 301 300 298 296 295 294
297 298 300 304 306 306 306 306 306 306 307 309 308 307 306 303 303 301 301 300 299 297 297 295 293 292 290
299 303 307 308 308 308 308 308 308 308 308 309 308 306 304 302 302 300 298 298 298 295 292 290 290 290 286
306 307 307 308 309 309 309 309 309 310 309 309 308 306 307 307 304 302 301 299 295 288 289 290 291 291 287
307 307 309 310 310 310 310 311 311 311 310 310 310 311 310 308 309 308 307 300 292 290 291 292 295 295 294
307 309 310 310 311 312 313 313 313 313 314 314 316 317 315 313 316 315 314 298 300 299 299 298 298 299 300
310 311 313 314 314 315 315 315 315 315 316 319 322 321 319 318 326 327 324 317 308 305 307 303 304 304 304
312 313 316 317 317 317 317 317 316 317 318 323 327 330 329 327 337 337 334 329 321 316 320 315 310 310 307
316 317 318 319 318 319 318 319 320 319 320 326 333 336 333 322 328 339 339 334 327 320 319 316 312 309 308
318 319 321 320 320 320 320 321 319 319 324 331 337 337 339 333 311 321 340 334 327 320 319 320 314 309 312
Height
5737 5733 5731 5727 5722 5717 5712 5706 5699 5694 5688 5682 5676 5670 5664 5657 5651 5644 5637 5629 5621 5612 5603 5593 5584 5574 5564
5722 5718 5716 5714 5708 5702 5695 5689 5684 5679 5673 5667 5660 5653 5645 5637 5630 5622 5615 5608 5599 5589 5579 5569 5555 5544 5533
5709 5707 5704 5699 5694 5688 5681 5675 5669 5664 5658 5650 5643 5635 5627 5617 5608 5600 5592 5583 5574 5563 5550 5539 5526 5515 5504
5699 5693 5689 5685 5680 5675 5669 5661 5654 5647 5641 5633 5626 5617 5608 5596 5587 5577 5567 5556 5545 5534 5521 5508 5496 5486 5478
5685 5680 5676 5671 5666 5660 5655 5649 5641 5634 5629 5617 5612 5599 5587 5572 5561 5549 5538 5527 5515 5503 5491 5480 5470 5463 5456
5671 5666 5662 5656 5652 5647 5640 5634 5629 5616 5614 5605 5593 5581 5567 5549 5534 5520 5507 5496 5484 5473 5464 5457 5450 5443 5436
5658 5653 5648 5643 5639 5633 5626 5619 5610 5598 5593 5587 5572 5561 5545 5526 5503 5488 5475 5464 5454 5447 5441 5435 5429 5423 5418
5645 5640 5635 5630 5625 5618 5611 5602 5592 5576 5569 5566 5548 5538 5524 5503 5481 5460 5448 5437 5427 5422 5419 5414 5408 5403 5401
5633 5629 5623 5616 5610 5603 5593 5582 5574 5558 5546 5541 5523 5515 5502 5481 5462 5436 5419 5408 5402 5397 5396 5393 5390 5387 5384
5622 5616 5609 5602 5594 5584 5574 5561 5549 5541 5521 5519 5498 5476 5481 5462 5440 5417 5401 5387 5381 5376 5376 5375 5373 5370 5369
5610 5604 5597 5589 5577 5566 5553 5541 5529 5514 5497 5486 5473 5455 5434 5423 5420 5393 5379 5371 5365 5361 5359 5358 5357 5356 5356
5598 5592 5583 5573 5561 5549 5537 5519 5501 5489 5474 5456 5445 5427 5414 5401 5385 5376 5365 5356 5351 5351 5350 5347 5345 5345 5344
5586 5577 5568 5558 5546 5532 5516 5499 5478 5460 5446 5435 5420 5409 5391 5379 5371 5361 5357 5350 5345 5344 5342 5339 5338 5336 5334
5572 5564 5554 5541 5528 5513 5497 5483 5467 5452 5429 5417 5405 5392 5382 5367 5361 5355 5348 5345 5343 5339 5337 5333 5331 5330 5329
5560 5549 5537 5522 5507 5494 5478 5465 5450 5438 5428 5417 5399 5382 5369 5360 5358 5352 5347 5342 5338 5335 5334 5331 5326 5326 5322
5545 5533 5520 5506 5491 5476 5464 5451 5437 5425 5416 5408 5398 5386 5371 5358 5349 5351 5347 5342 5338 5333 5331 5328 5323 5318 5316
5530 5518 5503 5489 5477 5465 5454 5441 5430 5418 5406 5399 5390 5382 5375 5366 5355 5342 5345 5340 5336 5331 5327 5322 5318 5313 5309